| time (UTC) | temp C | wind direction | speed KPH | gust KPH | rain 1hr cm | rain 24hr cm | rain mn cm | humidity % | barometer mb |
| 20260504172605 | 25 | 87 | 0.0 | 0.0 | 0.00 | 0.00 | 0.00 | 99 | 1010.2 |
| 20260504172102 | 25 | 69 | 1.6 | 1.6 | 0.00 | 0.00 | 0.00 | 99 | 1010.1 |
| 20260504171558 | 25 | 68 | 1.6 | 1.6 | 0.00 | 0.00 | 0.00 | 99 | 1010.2 |
| 20260504171056 | 25 | 87 | 0.0 | 0.0 | 0.00 | 0.00 | 0.00 | 98 | 1010.3 |
| 20260504170551 | 25 | 87 | 0.0 | 0.0 | 0.00 | 0.00 | 0.00 | 98 | 1010.2 |
| 20260504150924 | 26 | 108 | 1.6 | 3.2 | 0.00 | 0.30 | 0.30 | 92 | 1011.0 |
| 20260504150421 | 26 | 99 | 1.6 | 3.2 | 0.00 | 0.30 | 0.30 | 91 | 1011.3 |
| 20260504140847 | 27 | 112 | 1.6 | 1.6 | 0.00 | 0.30 | 0.30 | 89 | 1010.4 |
| 20260504140343 | 27 | 116 | 1.6 | 1.6 | 0.00 | 0.30 | 0.30 | 90 | 1010.5 |
| 20260504130812 | 27 | 91 | 0.0 | 0.0 | 0.00 | 0.30 | 0.30 | 89 | 1009.7 |
| 20260504130308 | 27 | 101 | 0.0 | 0.0 | 0.00 | 0.30 | 0.30 | 89 | 1009.8 |
| 20260504120232 | 27 | 121 | 1.6 | 1.6 | 0.00 | 0.30 | 0.30 | 88 | 1009.2 |
| 20260504110659 | 29 | 117 | 6.4 | 9.7 | 0.00 | 0.30 | 0.30 | 73 | 1008.7 |
| 20260504110155 | 29 | 133 | 6.4 | 6.4 | 0.00 | 0.30 | 0.30 | 80 | 1008.4 |
| 20260504100119 | 31 | 107 | 3.2 | 3.2 | 0.00 | 0.30 | 0.30 | 81 | 1007.9 |
| 20260504081512 | 31 | 321 | 4.8 | 4.8 | 0.00 | 0.30 | 0.30 | 78 | 1007.0 |
| 20260504081008 | 31 | 84 | 3.2 | 3.2 | 0.00 | 0.30 | 0.30 | 80 | 1007.5 |
| 20260504080504 | 31 | 348 | 3.2 | 3.2 | 0.00 | 0.30 | 0.30 | 77 | 1007.5 |
| 20260504050317 | 30 | 63 | 6.4 | 6.4 | 0.00 | 0.30 | 0.30 | 83 | 1011.0 |
| 20260504045814 | 31 | 299 | 4.8 | 4.8 | 0.00 | 0.30 | 0.30 | 84 | 1011.4 |
| 20260504045309 | 30 | 5 | 9.7 | 11.3 | 0.00 | 0.30 | 0.30 | 84 | 1011.4 |
| 20260504044806 | 31 | 315 | 4.8 | 6.4 | 0.00 | 0.30 | 0.30 | 83 | 1011.5 |
| 20260504044304 | 30 | 294 | 3.2 | 6.4 | 0.00 | 0.30 | 0.30 | 82 | 1011.4 |
| 20260504043801 | 30 | 38 | 4.8 | 4.8 | 0.00 | 0.30 | 0.30 | 86 | 1011.6 |
| 20260504043258 | 30 | 127 | 0.0 | 1.6 | 0.00 | 0.30 | 0.30 | 87 | 1011.7 |
| 20260504042755 | 30 | 337 | 8.0 | 11.3 | 0.00 | 0.30 | 0.30 | 88 | 1011.7 |
| 20260504042251 | 30 | 324 | 4.8 | 4.8 | 0.00 | 0.30 | 0.30 | 89 | 1011.7 |
| 20260504041748 | 29 | 359 | 6.4 | 9.7 | 0.00 | 0.30 | 0.30 | 89 | 1011.7 |
| 20260504041244 | 29 | 106 | 4.8 | 6.4 | 0.00 | 0.30 | 0.30 | 89 | 1011.8 |
| 20260504040739 | 28 | 62 | 1.6 | 3.2 | 0.00 | 0.30 | 0.30 | 91 | 1011.9 |
| 20260504040237 | 28 | 73 | 3.2 | 4.8 | 0.00 | 0.30 | 0.30 | 92 | 1011.9 |
| 20260504035728 | 28 | 316 | 4.8 | 6.4 | 0.00 | 0.30 | 0.30 | 92 | 1012.1 |
| 20260504035225 | 28 | 72 | 4.8 | 6.4 | 0.00 | 0.30 | 0.30 | 92 | 1012.3 |
| 20260504034723 | 28 | 330 | 6.4 | 9.7 | 0.00 | 0.30 | 0.30 | 91 | 1012.2 |
| 20260504034220 | 29 | 101 | 0.0 | 1.6 | 0.00 | 0.30 | 0.30 | 90 | 1012.1 |
| 20260504033718 | 29 | 70 | 1.6 | 1.6 | 0.00 | 0.30 | 0.30 | 89 | 1012.1 |
| 20260504033215 | 28 | 33 | 4.8 | 4.8 | 0.00 | 0.30 | 0.30 | 89 | 1012.2 |
| 20260504032711 | 28 | 321 | 6.4 | 6.4 | 0.00 | 0.30 | 0.30 | 90 | 1012.4 |
| 20260504032203 | 28 | 17 | 1.6 | 3.2 | 0.00 | 0.30 | 0.30 | 91 | 1012.5 |
| 20260504031659 | 29 | 77 | 0.0 | 1.6 | 0.00 | 0.30 | 0.30 | 88 | 1012.5 |
| 20260504031156 | 29 | 101 | 0.0 | 0.0 | 0.00 | 0.30 | 0.30 | 89 | 1012.2 |
| 20260504030652 | 28 | 122 | 1.6 | 3.2 | 0.00 | 0.30 | 0.30 | 91 | 1012.3 |
| 20260504030150 | 28 | 59 | 6.4 | 6.4 | 0.00 | 0.30 | 0.30 | 92 | 1012.3 |
| 20260504025646 | 27 | 83 | 1.6 | 1.6 | 0.00 | 0.30 | 0.30 | 94 | 1012.5 |
| 20260504025142 | 27 | 359 | 4.8 | 4.8 | 0.00 | 0.30 | 0.30 | 94 | 1012.4 |
| 20260504024635 | 27 | 31 | 3.2 | 3.2 | 0.00 | 0.30 | 0.30 | 94 | 1012.4 |
| 20260504024131 | 27 | 114 | 3.2 | 4.8 | 0.00 | 0.30 | 0.30 | 95 | 1012.2 |
| 20260504023627 | 27 | 18 | 3.2 | 3.2 | 0.00 | 0.30 | 0.30 | 95 | 1012.6 |
| 20260504023124 | 27 | 23 | 4.8 | 4.8 | 0.00 | 0.30 | 0.30 | 96 | 1012.3 |
| 20260504022620 | 27 | 310 | 4.8 | 6.4 | 0.00 | 0.30 | 0.30 | 98 | 1012.5 |
| 20260504022116 | 27 | 4 | 6.4 | 6.4 | 0.00 | 0.30 | 0.30 | 99 | 1012.5 |
| 20260504021614 | 27 | 77 | 1.6 | 3.2 | 0.00 | 0.30 | 0.30 | 99 | 1012.4 |
| 20260504021110 | 27 | 97 | 4.8 | 6.4 | 0.00 | 0.30 | 0.30 | 94 | 1012.5 |
| 20260504020608 | 27 | 359 | 8.0 | 9.7 | 0.00 | 0.30 | 0.30 | 95 | 1012.6 |
| 20260504020104 | 27 | 359 | 6.4 | 6.4 | 0.00 | 0.30 | 0.30 | 96 | 1012.5 |
| 20260504015600 | 27 | 95 | 1.6 | 1.6 | 0.00 | 0.30 | 0.30 | 96 | 1012.5 |
| 20260504015056 | 28 | 81 | 4.8 | 6.4 | 0.00 | 0.30 | 0.30 | 94 | 1012.2 |
| 20260504014552 | 27 | 63 | 1.6 | 1.6 | 0.00 | 0.30 | 0.30 | 97 | 1012.5 |
| 20260504014050 | 27 | 90 | 0.0 | 0.0 | 0.00 | 0.30 | 0.30 | 98 | 1012.3 |
| 20260504013547 | 26 | 107 | 0.0 | 0.0 | 0.00 | 0.30 | 0.30 | 99 | 1012.5 |
| 20260504013044 | 26 | 77 | 1.6 | 1.6 | 0.00 | 0.30 | 0.30 | 99 | 1012.3 |
| 20260504012541 | 26 | 97 | 3.2 | 3.2 | 0.00 | 0.30 | 0.30 | 99 | 1012.5 |
| 20260504012039 | 25 | 68 | 0.0 | 1.6 | 0.00 | 0.30 | 0.30 | 99 | 1012.6 |
| 20260504011536 | 25 | 83 | 1.6 | 1.6 | 0.00 | 0.30 | 0.30 | 99 | 1012.5 |
| 20260504011032 | 25 | 92 | 0.0 | 0.0 | 0.00 | 0.30 | 0.30 | 99 | 1012.4 |
| 20260504010528 | 25 | 94 | 1.6 | 3.2 | 0.00 | 0.30 | 0.30 | 99 | 1012.4 |
| 20260504010024 | 26 | 63 | 1.6 | 1.6 | 0.00 | 0.30 | 0.30 | 99 | 1012.3 |
| 20260504005520 | 25 | 52 | 1.6 | 3.2 | 0.00 | 0.30 | 0.30 | 99 | 1012.3 |
| 20260504005013 | 25 | 74 | 0.0 | 1.6 | 0.00 | 0.30 | 0.30 | 99 | 1011.9 |
| 20260504004510 | 25 | 64 | 0.0 | 1.6 | 0.00 | 0.30 | 0.30 | 98 | 1012.0 |
| 20260504004007 | 25 | 56 | 1.6 | 3.2 | 0.00 | 0.30 | 0.30 | 99 | 1012.1 |
| 20260504003503 | 25 | 61 | 1.6 | 1.6 | 0.00 | 0.30 | 0.30 | 99 | 1011.8 |
| 20260504003000 | 25 | 52 | 1.6 | 1.6 | 0.00 | 0.30 | 0.30 | 99 | 1011.8 |
| 20260504002457 | 25 | 49 | 1.6 | 1.6 | 0.00 | 0.30 | 0.30 | 99 | 1011.8 |
| 20260504001954 | 25 | 63 | 1.6 | 3.2 | 0.00 | 0.30 | 0.30 | 99 | 1011.6 |
| 20260504001452 | 25 | 97 | 3.2 | 3.2 | 0.00 | 0.30 | 0.30 | 99 | 1011.6 |
| 20260504000948 | 25 | 49 | 3.2 | 4.8 | 0.00 | 0.30 | 0.30 | 99 | 1011.4 |
| 20260504000445 | 25 | 85 | 1.6 | 3.2 | 0.00 | 0.30 | 0.30 | 99 | 1011.6 |
| 20260503235942 | 25 | 62 | 3.2 | 3.2 | 0.00 | 0.30 | 0.30 | 99 | 1011.4 |
| 20260503235440 | 25 | 94 | 1.6 | 1.6 | 0.00 | 0.30 | 0.30 | 99 | 1011.6 |
| 20260503234937 | 25 | 92 | 0.0 | 1.6 | 0.00 | 0.30 | 0.30 | 99 | 1011.4 |
| 20260503234435 | 25 | 94 | 0.0 | 0.0 | 0.00 | 0.30 | 0.30 | 99 | 1011.3 |
| 20260503233933 | 24 | 64 | 1.6 | 3.2 | 0.00 | 0.30 | 0.30 | 99 | 1011.3 |
| 20260503233429 | 24 | 99 | 0.0 | 0.0 | 0.00 | 0.30 | 0.30 | 99 | 1011.0 |
| 20260503232925 | 24 | 64 | 3.2 | 3.2 | 0.00 | 0.30 | 0.30 | 99 | 1011.3 |
| 20260503232422 | 24 | 65 | 1.6 | 3.2 | 0.00 | 0.30 | 0.30 | 99 | 1011.3 |
| 20260503231920 | 24 | 67 | 1.6 | 1.6 | 0.00 | 0.30 | 0.30 | 99 | 1010.9 |
| 20260503231417 | 24 | 72 | 1.6 | 1.6 | 0.00 | 0.30 | 0.30 | 99 | 1011.0 |
| 20260503230914 | 24 | 89 | 0.0 | 0.0 | 0.00 | 0.30 | 0.30 | 99 | 1010.8 |
| 20260503230410 | 24 | 75 | 0.0 | 0.0 | 0.00 | 0.30 | 0.30 | 99 | 1010.7 |
| 20260503225908 | 24 | 90 | 0.0 | 0.0 | 0.00 | 0.30 | 0.30 | 99 | 1010.8 |
| 20260503225404 | 23 | 49 | 3.2 | 4.8 | 0.00 | 0.30 | 0.30 | 99 | 1010.8 |
| 20260503224900 | 23 | 45 | 3.2 | 3.2 | 0.00 | 0.30 | 0.30 | 99 | 1010.6 |
| 20260503224357 | 23 | 60 | 3.2 | 3.2 | 0.00 | 0.30 | 0.30 | 99 | 1010.7 |
| 20260503223855 | 23 | 75 | 3.2 | 3.2 | 0.00 | 0.30 | 0.30 | 99 | 1010.6 |
| 20260503223353 | 23 | 75 | 1.6 | 3.2 | 0.00 | 0.30 | 0.30 | 99 | 1010.4 |
| 20260503222848 | 23 | 87 | 3.2 | 3.2 | 0.30 | 0.30 | 0.30 | 99 | 1010.2 |
| 20260503222347 | 23 | 74 | 0.0 | 0.0 | 0.30 | 0.30 | 0.30 | 99 | 1010.3 |
| 20260503221845 | 23 | 61 | 1.6 | 3.2 | 0.00 | 0.25 | 0.25 | 99 | 1010.3 |
| 20260503221343 | 23 | 53 | 4.8 | 4.8 | 0.18 | 0.25 | 0.25 | 99 | 1010.5 |
| 20260503220838 | 24 | 76 | 1.6 | 3.2 | 0.18 | 0.25 | 0.25 | 99 | 1010.3 |
| 20260503220336 | 24 | 36 | 0.0 | 0.0 | 0.18 | 0.25 | 0.25 | 99 | 1010.1 |
| 20260503215832 | 24 | 40 | 3.2 | 4.8 | 0.00 | 0.23 | 0.23 | 99 | 1010.0 |
| 20260503215330 | 24 | 66 | 4.8 | 4.8 | 0.00 | 0.23 | 0.23 | 99 | 1010.3 |
| 20260503214827 | 24 | 64 | 3.2 | 6.4 | 0.00 | 0.23 | 0.23 | 99 | 1009.9 |
| 20260503214325 | 24 | 77 | 1.6 | 3.2 | 0.00 | 0.23 | 0.23 | 99 | 1010.1 |
| 20260503213822 | 24 | 69 | 1.6 | 3.2 | 0.00 | 0.23 | 0.23 | 99 | 1010.1 |
| 20260503213319 | 24 | 71 | 3.2 | 3.2 | 0.00 | 0.23 | 0.23 | 99 | 1009.9 |
| 20260503212816 | 24 | 97 | 0.0 | 1.6 | 0.00 | 0.23 | 0.23 | 99 | 1010.0 |
| 20260503212314 | 24 | 72 | 1.6 | 3.2 | 0.00 | 0.23 | 0.23 | 99 | 1009.7 |
| 20260503211811 | 24 | 66 | 1.6 | 3.2 | 0.00 | 0.23 | 0.23 | 99 | 1009.9 |
| 20260503211308 | 24 | 53 | 0.0 | 1.6 | 0.00 | 0.23 | 0.23 | 99 | 1009.7 |
| 20260503210807 | 24 | 77 | 3.2 | 3.2 | 0.00 | 0.23 | 0.23 | 99 | 1009.6 |
| 20260503210305 | 24 | 62 | 4.8 | 4.8 | 0.00 | 0.23 | 0.23 | 99 | 1009.5 |
| 20260503205754 | 24 | 95 | 1.6 | 1.6 | 0.00 | 0.23 | 0.23 | 99 | 1009.2 |
| 20260503205251 | 24 | 73 | 1.6 | 3.2 | 0.00 | 0.23 | 0.23 | 99 | 1009.3 |
| 20260503204747 | 24 | 80 | 1.6 | 1.6 | 0.00 | 0.23 | 0.23 | 99 | 1009.1 |
| 20260503204245 | 24 | 81 | 1.6 | 1.6 | 0.00 | 0.23 | 0.23 | 99 | 1009.1 |
| 20260503203743 | 25 | 84 | 0.0 | 0.0 | 0.00 | 0.23 | 0.23 | 99 | 1009.2 |
| 20260503203240 | 25 | 74 | 1.6 | 1.6 | 0.00 | 0.23 | 0.23 | 99 | 1009.3 |
| 20260503202737 | 24 | 97 | 0.0 | 0.0 | 0.00 | 0.23 | 0.23 | 99 | 1009.3 |
| 20260503202235 | 24 | 94 | 0.0 | 0.0 | 0.00 | 0.23 | 0.23 | 99 | 1009.2 |
| 20260503201732 | 24 | 90 | 0.0 | 0.0 | 0.00 | 0.23 | 0.23 | 99 | 1009.2 |
| 20260503201230 | 24 | 101 | 0.0 | 0.0 | 0.00 | 0.23 | 0.23 | 99 | 1009.3 |
| 20260503200726 | 24 | 171 | 1.6 | 3.2 | 0.00 | 0.23 | 0.23 | 99 | 1009.1 |
| 20260503200222 | 24 | 140 | 3.2 | 3.2 | 0.00 | 0.23 | 0.23 | 99 | 1009.1 |
| 20260503195719 | 24 | 115 | 1.6 | 1.6 | 0.13 | 0.23 | 0.23 | 99 | 1009.5 |
| 20260503195216 | 24 | 93 | 0.0 | 0.0 | 0.48 | 0.23 | 0.23 | 99 | 1009.5 |
| 20260503194714 | 24 | 109 | 0.0 | 0.0 | 0.48 | 0.23 | 0.23 | 99 | 1009.5 |
| 20260503194209 | 24 | 81 | 1.6 | 1.6 | 0.89 | 0.15 | 0.15 | 99 | 1009.4 |
| 20260503193706 | 25 | 69 | 3.2 | 4.8 | 0.79 | 0.13 | 0.13 | 99 | 1009.8 |
| 20260503193202 | 25 | 22 | 6.4 | 6.4 | 0.00 | 0.00 | 0.00 | 98 | 1009.7 |
| 20260503192657 | 25 | 53 | 8.0 | 9.7 | 0.00 | 0.00 | 0.00 | 98 | 1009.9 |
| 20260503192153 | 25 | 78 | 3.2 | 3.2 | 0.00 | 0.00 | 0.00 | 99 | 1009.8 |
| 20260503191649 | 25 | 99 | 1.6 | 1.6 | 0.00 | 0.00 | 0.00 | 99 | 1009.8 |
| 20260503191147 | 25 | 89 | 1.6 | 1.6 | 0.00 | 0.00 | 0.00 | 99 | 1009.5 |
| 20260503190644 | 25 | 89 | 0.0 | 0.0 | 0.00 | 0.00 | 0.00 | 99 | 1009.7 |
| 20260503190141 | 25 | 85 | 0.0 | 0.0 | 0.00 | 0.00 | 0.00 | 99 | 1010.0 |
| 20260503185637 | 25 | 94 | 0.0 | 0.0 | 0.00 | 0.00 | 0.00 | 99 | 1009.7 |
| 20260503185132 | 25 | 91 | 0.0 | 0.0 | 0.00 | 0.00 | 0.00 | 99 | 1009.6 |
| 20260503184628 | 25 | 91 | 0.0 | 0.0 | 0.00 | 0.00 | 0.00 | 99 | 1009.9 |
| 20260503184125 | 25 | 93 | 0.0 | 0.0 | 0.00 | 0.00 | 0.00 | 99 | 1009.9 |
| 20260503183621 | 25 | 101 | 0.0 | 0.0 | 0.00 | 0.00 | 0.00 | 99 | 1009.7 |
| 20260503183118 | 25 | 103 | 0.0 | 0.0 | 0.00 | 0.00 | 0.00 | 99 | 1009.9 |
| 20260503182617 | 25 | 109 | 0.0 | 0.0 | 0.00 | 0.00 | 0.00 | 99 | 1009.8 |
| 20260503182115 | 25 | 116 | 0.0 | 1.6 | 0.00 | 0.00 | 0.00 | 99 | 1009.8 |
| 20260503181611 | 25 | 108 | 0.0 | 0.0 | 0.00 | 0.00 | 0.00 | 99 | 1009.9 |
| 20260503181108 | 25 | 96 | 0.0 | 0.0 | 0.00 | 0.00 | 0.00 | 99 | 1009.9 |
| 20260503180605 | 25 | 96 | 0.0 | 0.0 | 0.00 | 0.00 | 0.00 | 99 | 1010.2 |
| 20260503180103 | 25 | 104 | 0.0 | 0.0 | 0.00 | 0.00 | 0.00 | 99 | 1010.1 |
| 20260503175559 | 25 | 95 | 0.0 | 0.0 | 0.00 | 0.00 | 0.00 | 99 | 1009.9 |
| 20260503175057 | 25 | 79 | 1.6 | 1.6 | 0.00 | 0.00 | 0.00 | 99 | 1010.1 |
| 20260503174553 | 25 | 90 | 0.0 | 0.0 | 0.00 | 0.00 | 0.00 | 99 | 1010.1 |
| 20260503174050 | 25 | 89 | 0.0 | 0.0 | 0.00 | 0.00 | 0.00 | 99 | 1009.9 |
| 20260503173545 | 25 | 105 | 0.0 | 0.0 | 0.00 | 0.00 | 0.00 | 99 | 1009.9 |
| 20260503173042 | 25 | 109 | 0.0 | 0.0 | 0.00 | 0.00 | 0.00 | 99 | 1009.8 |